Location: Arrington
(35.8681°N, 86.7092°W)
Time: 07:40:03
(UTC+00:00)

STARLINK 1023 - Pass Details

Date: 23 November 2019
Orbit: 348 x 351 km, 53.0° (Epoch: 08 December)

Event Time Altitude Azimuth Distance (km) Brightness Sun altitude
Exits shadow 11:24:47 18° 238° (WSW) 941 4.4 -13.4°
Maximum altitude 11:26:45 63° 317° (NW) 392 2.6 -13.0°
Drops below altitude 10° 11:29:40 10° 40° (NE) 1,312 5.9 -12.4°
Sets 11:31:41 0° 44° (NE) 2,159 7.1 -12.0°
